Location: Augustenthal
(51.7167°N, 10.2833°E)
Time: 08:31:17
(UTC+00:00)

Cosmos 1943 Rocket - Pass Details

Date: 18 May 2021
Orbit: 814 x 842 km, 71.0° (Epoch: 20 June)

Event Time Altitude Azimuth Distance (km) Brightness Sun altitude
Rises 21:37:37 0° 222° (SW) 3,376 5.1 -15.4°
Reaches altitude 10° 21:40:06 10° 227° (SW) 2,442 4.4 -15.6°
Maximum altitude 21:45:37 58° 306° (NW) 970 2.8 -15.9°
Drops below altitude 10° 21:51:07 10° 25° (NNE) 2,437 5.2 -16.2°
Sets 21:53:36 0° 30° (NNE) 3,369 5.9 -16.3°
